GFSSE_con_sbcape_132.txt.gz
CAPE
246 390 1550 1329 1790 1526 1418 1936 1462 2131 2298 2684 2618 2611 2577 2404 1859 1784 1791 1708 1638 2353 1833 1681 1893 1933 1685 1691 1448 1438 1350 1180 1147 1647 1570 1702 1642 1748 1679 1450 1675 1473 1772
365 512 1860 2120 1974 1973 1391 1151 1343 1828 2644 2752 2610 2798 2669 2455 1654 1479 1745 1756 2228 2278 1898 1988 1948 1647 1411 1177 960 416 567 512 846 775 1107 1088 1383 1373 1291 1296 1337 1258 1131
611 771 1561 2130 2328 2177 2240 1998 1392 1599 1865 2801 2620 2848 2705 2419 2277 1789 2101 2065 2167 1894 1812 2061 1993 1411 1058 609 491 860 1079 962 1430 1533 1302 599 557 1292 1412 1466 1256 1306 436
590 994 1508 1984 2390 2324 2215 1926 1871 1830 2672 2859 2731 2869 2755 2811 2387 1964 1671 1885 1995 1685 1541 1227 1377 1155 486 431 1161 1583 1384 1458 1252 1282 876 921 926 865 978 1305 1450 1290 985
921 1124 1569 2592 2284 1939 2082 2183 2201 2419 2421 2814 2774 2884 2491 2160 2464 2447 2202 2059 2144 1663 1906 1254 672 744 928 812 1261 1279 1319 1452 1257 769 494 437 705 553 1294 993 771 1193 1223
1290 1301 2444 2505 2323 2269 2008 2277 2293 2475 2705 2799 2771 2723 2415 2339 2483 2393 1835 1818 1841 2167 1984 1374 1058 1120 1233 1298 1315 1356 1876 1189 899 260 75 554 539 1396 1233 1280 1548 1305 1350
1572 1769 1905 2566 2390 2250 2107 2101 2154 2156 2025 2813 2914 2782 2917 2638 2802 2592 1736 1623 1666 1750 2187 1915 1612 1610 1507 1272 1173 1155 1132 1081 316 0 40 316 331 1182 418 1006 1250 1428 1367
1886 1784 1938 2441 2582 2164 1986 2049 2001 1815 2237 2487 2787 2620 2389 2476 2674 2682 2035 1953 1883 1940 2204 2346 1461 1346 1150 1065 1096 1060 932 1134 125 0 410 760 799 1531 1069 1241 1207 1324 1249
1867 1836 1873 1969 2102 2084 2143 2018 2031 2100 2164 2337 2346 2726 2731 2418 2239 2033 2592 2665 2261 2068 1964 1967 1596 1550 1436 1499 1068 983 1512 1728 0 17 608 923 1579 1734 1323 636 1015 949 1250
1829 1896 1865 1828 1811 1902 1836 2442 2482 2267 1734 1681 1784 2035 2124 1812 1799 2288 2701 2502 2154 2133 2207 1959 1675 1374 1581 1476 958 894 1563 1297 0 29 851 1047 1724 1411 1160 927 630 386 303
1765 1827 1840 1653 1669 1727 1738 1823 2462 1987 1449 1425 1452 1661 2156 1147 1896 2056 2226 2236 2052 2139 2089 2083 1903 1945 1387 1646 958 1047 1388 413 4 99 706 1008 1772 1507 973 657 926 572 339
1075 1699 1546 1454 1581 1735 2030 1702 1886 1699 1421 1199 1005 943 1225 1090 1297 1721 2135 1972 2114 2199 2053 1953 1854 1818 1379 820 845 1220 1380 715 503 258 426 1258 1718 1933 1341 1113 873 729 970
810 1058 1402 1392 1475 1744 1902 1602 1710 1439 1526 1212 1249 1013 1195 1057 1185 1735 1620 1595 1483 1875 1594 2111 2430 1534 1198 924 785 541 534 602 586 466 435 1332 2006 1919 1503 1501 1936 1812 1549
857 825 1326 1347 1451 1475 1444 1505 1554 1417 1339 1211 1134 998 1105 1011 886 1102 1364 1389 1291 1046 1310 1432 1726 1777 1145 961 739 487 529 343 321 318 303 1077 2223 2222 1598 1476 1184 1204 1154
928 952 1358 1323 1397 1252 1235 1352 1392 1332 1384 1306 1172 1027 995 977 925 858 988 1113 1230 1117 953 1173 1426 1307 1311 1029 792 511 423 265 86 143 145 1036 2260 2379 1861 1250 1016 713 628
1102 1148 1280 1319 1276 1142 1256 1300 1354 1200 1232 1238 1199 1164 1073 1042 995 960 892 930 1151 1059 894 832 1071 1114 961 791 633 457 453 323 177 163 97 477 2276 2256 1935 1979 1975 1425 868
1199 1293 1283 1261 1155 1012 1219 1137 1146 1262 1218 1244 1247 1083 1110 1055 977 871 746 929 1098 1100 972 664 495 688 600 638 642 659 513 309 156 430 183 139 812 2503 2162 2340 2389 2795 2285
979 1127 1197 1389 1131 949 1043 992 1042 909 1026 1163 1159 1007 974 1026 890 748 588 831 1048 1180 1042 834 605 468 557 533 534 617 469 129 148 262 580 302 318 819 1893 2238 1950 2048 2248
864 934 930 1089 1037 916 870 733 748 766 720 864 964 915 857 977 1167 966 725 549 807 1187 1055 1013 881 677 576 566 545 526 437 293 85 66 639 589 495 584 873 1150 1954 1932 2187
774 857 826 790 704 690 735 717 596 632 679 797 914 1048 1012 924 1130 1149 1126 942 856 813 1027 932 935 725 853 756 607 595 403 313 248 182 111 271 745 683 817 1132 1237 1557 2201
861 748 786 765 818 667 607 854 985 965 1008 978 794 1029 1145 1067 1027 1215 1243 1174 984 1069 1066 940 977 892 828 451 336 286 235 233 150 110 120 91 176 844 866 991 1174 1223 1403
1068 823 698 708 749 645 796 909 993 1032 1118 1276 1306 1010 1015 1137 1198 1113 1164 1103 1072 1005 967 671 827 657 601 312 556 108 180 166 77 117 88 86 90 112 330 853 1114 1188 1370
1064 1016 925 807 774 768 869 907 1153 988 980 967 924 993 944 1070 1135 1111 1225 1100 1163 993 1017 869 659 688 616 202 298 338 134 168 43 50 82 74 139 40 43 122 649 1083 1287
808 842 1264 1143 1009 997 866 1132 1233 480 4 445 1221 1151 1102 980 1275 1314 1074 1083 1014 961 896 895 714 703 554 568 159 212 65 77 228 165 39 89 93 67 61 26 30 360 908
1312 1201 1052 1167 1285 1485 958 1048 1012 318 9 48 956 1048 991 954 994 1391 1240 975 1022 893 883 900 859 779 646 673 342 182 275 166 5 121 249 138 28 151 222 146 86 70 417
1244 1450 1437 694 275 1154 1341 1123 986 972 907 878 936 904 955 935 863 1128 1322 1122 1135 1045 894 785 784 721 747 655 580 286 279 268 196 162 168 279 107 198 69 92 113 114 47

GFSSE_con_sbcape_135.txt.gz
CAPE
249 612 843 1305 1658 2228 2107 1068 1397 2474 2703 2696 2659 2430 2397 2292 2105 2061 1866 2441 2277 2172 2030 2044 1847 2051 2012 1862 1584 1401 1201 1550 1532 1375 1609 1659 1686 1625 1430 1593 1616 1416 1711
441 549 1310 1304 1520 1320 1523 1923 1912 1731 2722 2680 2699 2792 2703 2422 1758 1683 2374 2641 2434 2444 2171 2081 1845 1678 1546 952 942 979 772 946 1297 1184 1167 1468 1499 1545 1459 1532 1263 1405 1429
590 671 770 1378 2117 1906 1928 1928 2103 2501 2594 2876 2783 2721 2543 2404 2190 2235 2232 2288 2185 2206 2136 1852 1378 1169 781 393 445 490 663 1334 1746 1464 508 313 871 1106 1373 1197 1386 599 752
787 755 881 1817 1854 2071 1931 1913 1863 2088 2259 2869 2886 2590 2386 2531 2746 2360 1817 1871 2389 1889 1764 1880 1160 734 573 1144 1585 1205 1332 1280 1454 1073 386 77 265 1337 1699 1591 1314 758 483
1269 1348 1254 2265 1943 1587 1791 2056 1938 2746 2830 2855 2746 2484 2347 2252 2259 2364 2101 1903 1658 1614 1037 914 736 555 583 1523 1293 1337 1577 1371 1368 726 642 959 105 516 870 1327 1358 1533 497
1320 1514 1986 2188 2345 2022 2316 2302 2535 2944 2888 2793 2646 2427 2381 2562 2666 2105 2044 2349 1830 2002 1415 815 927 977 1034 1209 1386 1401 1278 1108 858 750 531 486 911 1462 1376 735 1219 1415 800
1365 1421 1726 2134 2313 2594 2528 2535 2495 2421 2883 2811 2508 2250 2383 2494 1993 1700 1634 1668 1839 2095 1727 1534 1389 1244 1417 1433 1411 1299 1170 1093 465 388 416 121 1067 1168 1359 1384 1341 1480 1339
1691 1639 1527 1969 2176 2309 2107 1998 2059 1919 2469 2720 2851 2707 2521 2584 2655 2358 1864 1729 1779 2024 2083 1780 1752 1615 1400 1246 1053 1117 1031 1304 580 149 51 155 812 802 561 775 1101 1262 1191
1880 2086 2408 1808 1883 2033 2264 2221 2056 2184 2455 2626 2658 2633 2449 2215 2125 1996 2013 2130 1912 2131 1997 1695 1488 1319 1167 1238 1200 917 1533 1172 365 148 126 497 1058 1572 1415 1118 1400 1316 1389
1742 2256 2417 2278 2225 2210 2366 2495 2467 2499 1962 1983 2096 2151 2144 2116 1799 1953 2523 2371 2223 2070 1896 1865 1653 1617 1611 1573 1046 931 1592 1488 585 151 202 555 1545 1524 1182 1001 529 480 688
1507 2216 2358 2402 2520 2461 2208 2075 2255 1851 1653 1723 1855 1932 1963 1179 1384 2017 1778 1899 1966 1935 1976 2000 1892 1630 1467 1651 1177 896 1484 1053 677 340 414 1283 1543 1498 1170 1022 1172 978 468
1491 1620 2202 2241 2370 2298 1780 2144 2081 1642 1341 1387 1448 1639 1569 1588 1981 1870 1840 1945 1934 2061 1695 1829 1875 2012 1541 956 941 891 1141 975 783 472 532 1114 1420 1849 1638 1038 815 871 676
1532 1637 1916 2025 2202 2199 1895 1963 1832 1846 1581 1721 1862 1939 1754 1725 2056 1950 2087 1500 1940 1942 1921 1480 1745 1327 1006 839 732 616 678 808 700 622 594 1247 1603 1686 1880 1698 1034 1039 1218
1160 1387 1968 1978 2079 2066 2148 2057 2006 2013 2100 1907 1786 2280 2320 2010 2176 2345 2171 2016 2065 1693 2016 2051 1746 1846 1420 1004 526 470 647 837 941 911 972 1310 1687 1727 1825 1671 1464 1422 1711
1209 1303 1647 2180 2284 2338 2299 2022 2186 1983 2087 2046 2363 2328 2103 2035 1912 2078 1945 1951 1816 1641 1798 2405 2224 1910 1998 1297 725 659 608 1013 744 733 943 747 1722 2223 2026 1758 1610 1216 1051
1279 1301 1277 1909 2289 2381 2364 2367 2456 2514 2445 2552 2111 2061 2474 2234 2233 2048 1900 1498 1478 1790 1988 2170 2165 1677 1737 1409 917 695 734 1138 828 806 998 1050 1672 2547 2384 1999 1994 1869 1279
1441 1435 1401 1573 1911 2268 2281 2290 2194 2118 2302 2381 2245 2449 2442 2374 2211 2158 1805 1640 1480 1993 1764 2017 2206 1704 1429 1420 1269 1109 969 1326 902 765 1142 1083 1146 2342 2533 2314 2258 2544 2527
1634 1733 1656 1652 1767 1995 2027 2053 1864 1870 2059 1841 1868 1985 2314 2398 2439 2285 1969 1767 1757 1666 1998 1768 1933 1671 1341 841 980 1143 973 1341 1099 952 851 1060 1034 827 1961 2566 2273 2045 2186
1837 1924 2010 2002 1933 1928 1984 1908 1932 1906 1934 1820 1859 1924 2059 2155 2095 2209 1595 1478 1956 1723 1921 1615 1613 1937 1500 1216 912 1012 1342 1307 1138 618 667 804 1280 1431 1302 1227 2242 2118 2105
1937 1933 2017 2086 2151 2153 2068 1980 1855 1774 1716 1695 1666 1575 1710 1895 1915 1978 1812 1918 2061 1736 1702 1416 1329 1881 1833 1431 1227 981 1183 1108 1146 1027 965 788 642 1186 1609 1722 1489 1519 2145
1940 1966 2039 2020 2045 1955 1946 1749 1681 1703 1598 1529 1615 1722 1797 1866 1908 2065 1954 2191 2281 2043 1893 1546 1806 2095 1988 1794 1475 1412 1306 1232 1118 849 855 823 754 755 941 1526 1917 1565 1484
2064 2097 2163 2141 2129 1844 1661 1654 1502 1754 1712 1618 1692 1838 1760 1801 1977 1984 2149 2171 2210 2181 2233 2226 2022 1743 1672 1719 1264 1248 1050 740 552 393 325 677 750 681 564 839 1202 1591 1710
2149 2228 2191 2274 2233 2141 1918 1808 1789 1840 1758 1813 1904 1958 2139 1981 2010 2125 2401 2372 2398 2438 2526 2341 2404 1936 1611 1542 1451 1527 810 432 380 315 533 432 490 482 386 644 678 1068 1513
2089 2173 2303 2319 2210 2128 2122 2019 2138 1967 1953 1884 1629 1247 1709 1903 2068 2069 2430 2133 2354 2145 2636 2585 2238 2090 2244 1817 1444 1313 1713 1265 643 371 500 536 790 827 893 723 497 689 1147
1623 1714 1760 2082 2337 2296 2254 2263 2254 2370 2258 1924 1247 1659 1875 2095 2147 1979 2228 2169 2340 2322 2524 2555 2842 2166 2102 2094 1781 1945 1271 1162 1200 862 620 496 657 627 787 991 750 660 894
2551 2673 2440 2339 2347 2595 2696 2597 2494 2371 2515 2475 2640 2757 2584 2352 2226 2118 2061 2318 2341 2461 2471 2677 2595 2484 2561 2119 2346 1728 2162 1230 1027 903 718 799 777 850 788 706 753 777 738

GFSSE_con_sbcape_138.txt.gz
CAPE
112 369 584 601 872 997 1446 2045 2604 2691 2567 2723 2643 2687 2508 2260 2114 2163 2501 2412 2342 2820 2122 1535 1787 1702 1916 2102 1961 1354 1548 1316 1332 1433 1684 1903 1752 1590 1588 1437 1710 1077 1723
55 401 522 683 1387 706 1150 1626 2139 2631 2795 2689 2692 2616 2518 2280 1896 2087 2482 2473 2243 2451 2102 2002 2011 1531 1526 1438 1374 1200 1645 1709 2130 1471 1451 1755 1623 1431 1506 1615 2415 1861 1635
190 545 601 1317 1876 1675 1342 1281 1775 2541 2662 2611 2864 2689 2536 2439 2027 2067 2238 2257 2245 2258 2049 1676 1525 1224 598 546 515 623 820 1104 1316 796 1228 483 655 1224 1259 1325 1020 1224 1382
297 902 652 1553 2080 1587 1756 1501 1944 2686 2759 2818 2679 2615 2677 2582 2330 2281 2058 2133 2395 2285 1872 1415 1022 652 1285 1650 1410 1267 1436 1694 1124 416 52 174 731 1575 1496 1233 527 470 774
641 813 1093 1823 1792 1441 1407 1803 2746 2623 2787 2662 2506 2210 2491 2388 2478 2093 2060 1971 1685 1483 1628 938 658 943 1912 1528 1585 1750 1533 1511 1140 636 441 208 128 1073 1598 1638 1500 615 320
1155 1147 1376 1910 1779 1458 1454 1744 2665 2974 3024 2654 2022 1936 2114 2519 2666 2498 2506 1929 2165 1431 900 1001 976 1219 1398 1427 1448 1427 1292 1130 1113 231 40 460 797 1334 720 842 1472 1086 424
1262 1085 1354 2401 2321 1549 1462 1844 2477 3062 3017 2778 2094 2072 2436 2192 1971 1899 1876 2147 2221 1714 1267 1360 1248 1312 1450 1588 1531 1397 1237 1261 729 363 98 485 846 1374 1357 1674 1356 1509 951
1225 1284 1349 2036 2016 1803 1963 1631 1592 2086 2489 2177 2119 2019 2087 2083 1997 1936 1773 1800 2111 1776 1833 1884 1673 1662 1484 1316 1135 1153 1231 1528 444 62 132 294 771 527 792 1147 1283 1417 1322
1247 1385 1666 1498 1766 1872 1898 1978 1786 2495 2300 2580 2256 2531 2346 2204 2065 2087 2151 1958 2181 1956 1824 1756 1664 1412 1224 1269 1328 961 1585 1723 751 128 78 366 861 1154 1257 1252 1345 1306 1367
1746 1910 1948 1651 1893 2049 2127 2057 2038 2188 2063 2016 2149 2188 2022 1968 1722 1948 2224 2172 2170 1951 2018 1716 1545 1508 1581 1594 1329 931 1303 1670 1015 448 321 945 1407 1780 1288 968 569 728 789
1902 2156 2328 2248 2329 2375 2230 2164 1977 1949 1914 1845 1964 2086 1722 1006 1012 1377 1596 1743 1893 1769 1712 1839 1755 1653 1467 1610 1466 947 1195 1144 926 697 550 1158 1478 1597 1230 1239 968 726 489
1497 2046 2134 2285 2156 2359 1802 2140 2183 1534 1192 949 1013 1460 1134 1168 1414 1407 1692 1756 1699 1727 1740 1761 1686 1966 1665 392 1127 1057 894 987 1006 922 960 1378 1387 1656 1663 1356 912 1054 778
1343 1826 2132 2107 2231 1904 1642 1622 1476 1417 1036 1247 1567 1641 1252 1218 1179 1002 1204 1279 1430 1951 1308 1681 1832 1155 757 584 437 940 1052 1048 937 919 1196 1634 1479 1521 1770 1822 1239 915 979
1302 1443 1810 2059 2457 2211 1896 1756 1500 1363 1326 1300 1422 1805 1638 1545 1199 1195 968 1169 1343 1137 1123 1144 907 1281 1421 633 593 663 893 994 888 950 1063 2098 1968 1598 1776 1927 1751 1380 1460
1513 1685 1835 1915 2332 2312 2640 1918 1819 1811 1794 1580 1473 1680 1589 1226 1337 1335 1165 1327 1182 1510 1410 1503 1386 1335 1428 1143 545 480 708 859 965 931 945 2182 1941 1863 1920 2039 1914 1673 1373
1354 1538 1874 2145 2183 2341 2463 2277 2226 2036 1811 1945 1792 1790 2160 1799 1799 1643 1726 1582 1092 1360 1862 2450 1939 1267 1281 960 512 436 400 693 890 1005 930 1309 1821 2413 2325 2193 2120 1955 1605
1450 1588 1654 2006 2157 2370 2434 2383 2203 1885 2283 1979 1799 1919 2106 2192 2007 2085 1608 1522 1511 1251 2022 2238 2117 2056 1743 1047 879 629 363 367 648 1141 1080 1199 1707 2305 2792 2632 2764 2480 2604
1545 1831 1837 1655 1865 2286 2527 2325 2072 1724 1671 1524 1509 1583 1946 2138 2152 2044 1643 1448 1373 2076 1593 2293 1676 1999 1659 1270 908 693 304 350 451 1087 1217 1038 1142 1232 2307 2828 2557 2391 2511
1960 2198 2315 2262 2236 2233 2286 2166 2072 1894 1827 1552 1385 1354 1580 1949 1878 1952 1590 1343 1537 1492 1697 1918 1951 1540 2137 1632 1339 918 732 589 700 541 635 865 1167 1161 1100 2308 2597 2376 2308
2286 2607 2794 2793 2780 2650 2437 2391 2041 1882 1841 1701 1495 1298 1395 1661 1880 1972 1688 1700 1843 1763 1684 1761 2065 1700 1970 2194 1499 1018 1003 819 616 496 509 742 903 1031 1095 1352 2120 2010 2395
2623 2840 3087 3155 3191 3131 2767 2535 2350 2208 2058 1942 1768 1768 1758 1755 1849 2166 2145 1869 2278 2283 2137 2288 2403 2209 1718 1773 3120 1646 1242 1368 1448 1118 559 416 323 412 762 861 1381 1383 1504
2823 3021 3196 3365 3451 3398 2832 2686 2444 2488 2369 2288 2205 2155 2276 2275 2161 2510 2459 2539 2790 2381 3244 3192 3152 3410 3367 2057 1849 2950 1258 907 816 1020 1020 619 420 356 318 567 1001 1535 1663
2815 3148 3328 3595 3523 3483 3064 2681 2731 2691 2619 2584 2585 2461 2255 2319 2438 2499 2801 3065 2710 2584 2755 2535 2868 2787 2064 1658 2215 2015 1145 812 491 464 665 684 467 325 471 629 701 889 1508
2657 2774 3185 3445 3531 3441 3384 3005 3101 3015 2911 2703 2804 2637 2406 2189 2316 2240 2663 3042 3252 2420 2586 2739 2978 2860 3039 1639 2600 1856 1977 1765 1125 510 414 898 1163 1320 1064 562 418 551 927
2402 2495 2838 3178 3469 3339 3304 3401 3250 3295 2749 2551 2747 3068 3233 3260 2761 2823 2866 2822 2977 2999 2786 2797 3204 3406 3180 2328 1807 2140 2638 2663 2402 1867 848 450 1242 1169 984 1188 917 620 743
2249 2332 2586 3402 3870 3882 3850 3673 3205 3137 2901 2568 2146 1794 1187 1095 1369 1953 2206 2543 2771 2699 2749 2456 3009 3082 3140 2651 2617 2629 1372 1816 1622 1640 1328 1101 649 627 1196 1123 730 768 695

GFSSE_con_sbcape_141.txt.gz
CAPE
163 234 329 478 1118 1484 1776 2249 2564 2589 2478 2520 2636 2591 2338 2456 2620 2545 2453 2132 1998 2009 1514 1982 1465 1387 1516 1726 2007 1268 1343 1353 1672 2038 1903 1799 1613 1619 1516 1302 2346 1055 1822
129 442 600 680 920 1075 1647 2609 2409 2644 2534 2643 2693 2437 2145 2403 2235 2488 2354 2250 1928 1858 2016 2016 1767 1773 1576 1501 1424 1860 1679 1907 1546 1644 1663 1472 1395 1604 1336 1470 2193 1277 1293
364 308 370 895 874 448 1100 1207 2135 2640 2472 2182 2266 2265 2067 2535 2488 2034 1934 1964 1933 1565 1841 1761 1279 1005 877 615 701 783 1252 1228 1260 1629 2102 457 527 1276 1313 1143 1541 1788 1478
593 668 572 1314 871 973 1298 841 2109 2405 2562 2387 2282 2157 2081 2160 2232 2242 2202 1811 2285 1830 1493 1066 657 1081 1301 1240 1167 1522 1823 1514 825 603 1103 443 1118 1330 1198 375 495 983 1476
908 821 944 1349 1179 727 753 1565 2625 2841 2577 2248 2179 2107 2226 2267 2209 2038 2080 1743 1755 1911 964 813 1260 2071 1597 1812 1468 1533 1638 1430 1351 1360 372 312 597 1645 1675 1258 482 456 370
1005 865 1156 1328 1250 1181 1185 2704 2790 2494 2593 2085 1878 2047 2054 2042 2012 2082 2030 1674 1421 840 999 770 1374 1537 1366 1431 1532 1372 1133 1056 1255 30 107 496 921 748 967 1449 1211 263 477
1052 847 1038 1594 1378 1705 1649 2340 2689 2748 2271 2128 2075 1657 1997 2027 1936 2388 2227 2118 1708 1306 1402 1311 1254 1419 1722 1630 1386 1200 1300 1514 1468 162 137 904 1079 1192 1346 1356 1622 1148 407
1063 917 945 1555 1518 1349 1281 2072 2553 2390 1906 2031 2113 1994 1782 1781 1843 1671 1746 2117 1889 1768 1884 1616 1694 1653 1465 1209 1155 1048 1687 1693 790 68 130 832 895 906 1126 1393 1465 1513 1351
1239 1261 1207 1119 1215 1273 1247 1317 1943 2103 1714 1946 2303 2176 2143 2010 1887 2104 1923 1982 2004 1966 1827 1858 1723 1398 1217 1280 1240 917 1363 1892 1351 46 161 616 1423 1236 1065 1131 1043 1205 1188
1547 1523 1472 1792 1472 1584 1272 1773 2057 2269 1763 1797 2240 2171 1850 1599 1369 2311 2154 2087 1789 1789 1818 1548 1460 1420 1515 1526 1422 946 1130 1597 1548 277 244 795 1660 1898 1504 804 717 820 971
1616 1756 2006 2001 2220 2209 1931 1817 2018 2161 1991 1824 1821 1884 1528 1763 1471 2057 1885 1678 1635 1417 1419 1714 1661 1599 1417 1359 1590 1289 1101 1142 1212 265 1140 1984 1721 1541 1156 1300 796 532 377
1796 1847 1957 2360 2296 2244 1936 2047 2077 2110 1406 1103 775 1554 1335 1072 1606 1493 1561 1423 1376 1170 1554 1441 1606 1812 1717 271 1236 1727 841 1029 312 603 1296 2092 1694 1503 1483 1350 1033 1182 930
1453 1482 1892 2263 2575 2305 1784 1855 2270 1619 1085 927 1243 1663 1222 1302 1291 710 2053 1379 1902 1892 1663 1863 1841 1324 782 622 370 456 942 698 467 643 1472 2281 2058 1472 1672 1802 1541 945 930
1271 1453 1474 2243 2073 1763 1536 1548 1362 1256 962 1036 1402 1864 2014 1675 1243 1301 960 1085 1451 931 1616 1030 910 1160 970 1008 481 446 425 480 543 680 1336 2506 2268 1892 1743 1949 1982 1554 1107
1236 1442 1611 2054 2913 2401 1928 1527 1508 1373 1304 1289 1355 1747 1677 1341 1346 1415 1311 1188 1158 1159 786 1143 1147 1095 1269 1141 1038 425 439 458 481 588 942 2957 2626 2302 1815 2105 2156 1943 1629
1282 1578 1741 1856 2203 2461 2180 2440 1766 1617 1814 1504 1545 1507 2120 1693 1799 1563 1728 1551 1355 1003 2077 1756 1717 1532 1342 1137 1216 1014 389 337 381 523 842 1450 2876 2445 2246 2242 2375 2212 1948
1356 1537 1866 1970 1986 2173 2316 2108 1868 1488 1290 1619 1314 1581 1882 2265 2609 2614 1761 1603 1338 1455 2403 1916 2197 2606 1761 1164 1414 1354 527 282 127 348 782 1440 1760 2468 2597 2816 2910 2912 2713
1632 1936 1976 1824 2050 2239 2314 2391 1854 1447 1339 1244 1236 1370 2011 1827 2102 2555 1678 1324 1312 1905 1420 1512 1636 1834 1976 1930 1582 1391 1292 564 370 292 511 1035 1144 1100 2674 2958 2928 2860 2770
1974 2328 2426 2299 2183 2404 2603 2452 2236 1920 1713 1518 1315 1193 1730 1669 1766 2215 1633 1392 2277 1229 1438 1580 1458 2113 1704 1645 1299 1562 1524 960 579 282 515 1272 1348 1183 1383 2467 2787 2576 2573
2283 2664 2851 2950 2849 2903 2721 2709 2396 2304 2037 2023 1883 1625 1601 1427 1571 2179 1642 2320 2438 1494 1224 1336 1977 1557 1843 1396 1241 1280 1456 1251 1142 562 411 389 608 971 1683 2020 2256 2097 2481
2626 3011 3351 3458 3932 3458 2865 2677 2674 2765 2932 2322 2463 2380 2271 2091 2481 2855 2182 2268 2301 2360 2626 3311 3025 2667 2128 1680 2277 1533 1715 1558 1339 958 829 554 620 764 1145 1515 2234 1614 1821
2754 3194 3606 3783 4370 4109 3317 3580 3366 3160 2775 3431 3308 3292 3241 2635 2767 2872 3199 2474 1945 764 1131 2038 2619 2307 2563 2500 1758 1736 1193 977 1560 1308 1498 1178 878 649 604 921 1226 1958 1911
2789 3357 3597 3984 4028 4294 3823 3431 3354 3576 3085 2696 2800 2533 2884 2689 2818 2975 2865 2934 2984 2557 1689 2120 1875 1487 2119 2500 2269 1659 1249 997 1035 1108 1770 858 1506 826 736 934 1506 1865 2287
2546 2943 3616 4044 4153 4010 3989 4030 3991 3289 3137 2428 2286 2246 2680 2575 2118 2746 2898 3206 3300 2544 2872 2027 2333 1693 1072 1022 1940 1819 2072 1712 1222 902 730 993 1945 1714 1849 1173 849 1664 2177
1623 2071 3029 3861 4185 4067 4151 4036 3549 3756 2629 1994 1628 2282 3912 3195 2861 2611 3327 2873 2964 2983 3111 3081 2982 2990 2316 1868 881 917 2286 2238 2552 1495 1160 797 610 981 1143 1808 1068 671 1354
1446 1653 2232 3702 4202 4285 4035 4069 3778 3464 3105 2444 1731 1096 159 2 0 225 451 1332 2279 2340 2487 2374 2818 2828 2809 2613 2267 2398 771 1192 1395 1855 1502 1759 1267 1087 1187 1092 1649 1484 1226

GFSSE_con_sbcape_144.txt.gz
CAPE
146 438 822 749 1271 1884 2054 2229 2447 2713 2770 2756 2520 2755 3044 3004 2913 2955 2733 2702 2652 2613 1615 1517 1530 1565 1906 1874 1255 1259 1324 2017 2118 1774 1712 1489 1638 1541 1461 1878 2238 1261 1780
171 502 779 752 1380 1781 2113 2667 2493 2742 2774 2773 2600 2541 3013 2576 2580 2821 2581 2246 2578 1970 1974 1800 1722 1747 1610 1798 1508 1522 1643 2216 2489 1760 1290 1722 1732 1408 1794 1776 1941 1202 1449
241 101 460 1161 481 1058 2304 2290 2217 2611 2466 2586 2411 2661 2890 2352 2008 2430 2554 1692 1800 1916 1839 1213 1149 905 688 801 892 1175 1358 1836 1901 1509 1944 382 1212 1287 1233 1594 1889 1050 1269
240 116 308 1073 226 452 1611 1615 1781 2054 2449 2496 2531 2549 2226 2376 2971 2382 1912 1863 2410 1320 944 506 807 909 911 1220 1351 1429 1547 1181 720 1156 1256 505 302 1005 243 607 1059 1527 1573
494 427 499 777 692 963 1061 2482 2501 2348 2708 2705 2434 2407 2754 2682 2490 1933 1905 2027 1732 862 745 1455 1734 1603 2017 1158 1154 1351 1292 1193 1362 1571 1096 731 790 1502 1077 232 443 489 774
698 629 1187 1298 670 714 1794 2767 3036 2864 2716 2510 2305 2328 1917 1964 2586 2180 1827 1570 1240 821 685 1572 1229 1169 1144 1373 1268 1095 1108 1580 1935 270 741 923 423 1376 1455 1141 296 168 463
773 659 840 1974 1540 1430 2457 2625 2757 2752 2487 2499 2248 1448 2885 2683 2560 2708 2072 1775 1470 1646 1565 1555 1306 1777 1646 1399 1073 1139 1765 1732 1676 42 472 957 774 1405 1334 1423 894 319 1008
704 698 676 1662 1674 1705 2489 2752 2730 2235 1898 2281 2271 2414 2187 2077 2172 2394 2364 1899 1724 2059 2210 1880 1607 1531 1293 1067 1058 1048 1880 1959 1501 43 636 377 1910 2015 1685 1462 1509 1217 452
1015 823 760 766 1142 1333 2035 2315 2412 2340 1999 1982 2642 2595 2326 2065 2031 2003 2653 2233 1909 1985 1920 1810 1655 1285 1099 1172 1151 1173 1687 1560 1591 510 275 350 1344 1201 739 856 778 1003 914
1382 1349 1519 1371 1229 999 829 2370 2563 2428 2245 2245 2231 1976 1946 1565 2271 2113 2728 2432 1842 1818 1651 1499 1428 1243 1210 1357 1497 1909 1534 1460 1117 1374 871 622 2021 1994 1299 842 1122 999 1330
1567 1700 1888 1731 1896 2102 1722 1678 2496 1922 1809 1697 1808 1824 1891 1443 1740 2204 2296 2469 1663 1607 1594 1537 1466 1443 1370 1649 2091 2542 2027 874 228 994 521 1908 2378 2210 1366 1100 474 441 278
1754 1695 1763 2163 2467 2250 1321 2046 2202 2050 1654 1631 1400 2104 1603 1474 2206 2039 1843 2652 2193 2082 1601 2001 2278 2357 1882 600 1038 2465 1512 842 847 909 929 2363 2375 2108 1552 1734 1304 991 680
1884 1863 2235 2257 2477 2258 1726 2004 2238 2114 1715 1735 2862 3222 2592 2666 2620 1744 1534 1530 1592 1907 1281 1658 1557 1379 1125 1201 1308 1545 1471 801 706 920 1324 2369 2387 2310 1800 1969 1798 1427 1185
2087 2336 2180 2506 2763 1793 1966 2219 2194 1983 1794 1425 1757 3070 3306 2802 2721 2589 2017 1607 1727 1886 1481 2063 1914 1898 1267 1081 1225 850 722 450 449 473 1518 2601 2445 2444 2402 2369 2318 1851 1390
1752 1472 2389 2548 3110 2674 3842 1745 3535 1806 1572 1448 2566 2729 2367 2831 2724 2937 2761 2238 2009 1205 1917 2002 2359 1762 2027 1559 1278 1292 679 473 464 488 1527 3126 2546 2500 2595 2421 2571 2346 1843
1681 1811 2774 2912 3345 3632 2992 4100 3443 3468 2124 2610 1518 2511 3041 2895 3274 3270 2763 1860 1762 1917 3052 568 680 2425 2101 1683 1345 1252 1175 784 536 693 864 2332 2984 2443 2558 2817 2863 2841 2550
1902 1854 2077 2545 2613 3715 3656 3274 3257 2757 1834 2072 2029 2715 2979 3074 3532 3126 2502 2244 1763 2376 2626 1131 503 2132 1954 1971 1788 1273 1285 1012 271 445 796 1207 2692 2848 2491 2595 2970 2939 2899
1815 2545 2590 1842 2453 2935 3504 3525 2939 2413 2464 2481 2221 2310 2926 3275 3077 3164 2241 2165 2034 2105 2055 2305 2390 2374 2306 1977 1785 1423 976 1271 733 687 422 639 998 1684 2431 2564 2736 2840 2976
2791 3093 3238 3256 3025 3171 3778 3072 3476 3091 3189 2679 2274 2456 2952 3108 2951 3046 2529 2211 3175 2425 2292 2208 2071 2066 1689 1809 1607 1395 1184 1097 1069 514 384 636 663 1084 1786 2185 2510 2465 2552
2983 3279 3486 3436 3849 3995 3777 3764 3357 3185 3339 2999 2865 2692 3442 2805 3008 3205 2666 2517 2529 2278 1798 1044 1361 1767 1898 1232 1687 1220 1906 1279 1135 878 634 667 753 982 745 1218 2142 1952 2638
2824 3496 3946 4069 4154 4048 3635 3046 3666 3090 3203 2964 2067 1814 1210 3095 3154 3534 2561 2201 1849 1593 927 10 166 941 1133 1346 1119 883 1396 1506 1467 1167 1175 729 388 464 535 1025 1506 1658 1825
3163 3736 4281 4473 4621 4292 3891 3764 4223 3758 3220 3721 3884 3566 3526 3587 3246 3386 2688 2392 2421 1697 550 362 60 220 807 826 524 422 688 829 994 1260 1128 915 731 486 444 774 877 1334 1408
3104 3900 4432 4652 4829 4303 4094 4078 4596 4124 4444 3261 3760 3954 3401 3222 4073 3597 3460 2915 2434 2409 1775 1008 415 564 727 684 614 719 754 983 1010 851 1290 1136 987 843 704 710 654 488 1250
2919 3711 4652 4832 4938 4803 4716 4374 4694 4189 3822 3425 3696 3751 3624 3586 3756 3274 3117 3171 2921 2506 2013 2139 1500 1805 1691 1112 1152 680 459 627 733 462 599 1355 1363 1738 1614 1393 913 972 1167
2372 3262 4166 4850 5084 5134 4872 4974 4661 4495 3610 4256 3330 3150 3549 3145 3047 3037 3096 2557 2783 3000 2579 2096 2441 2518 2065 1729 1226 1011 401 224 177 525 466 671 789 1401 1321 1397 859 781 1254
2091 2210 3682 4848 5169 5028 5151 5027 4985 4904 4199 3740 2795 2229 1889 1131 586 752 1485 1512 1643 1714 1760 1502 1556 1822 1677 1603 1478 1523 1144 756 330 371 402 619 967 1034 1249 1126 1230 934 616

GFSSE_con_sbcape_147.txt.gz
CAPE
233 459 1532 1960 2376 2435 2348 2269 2531 2639 2441 2726 3159 3124 3027 3072 2861 2865 2841 2636 2317 1732 1649 1548 1688 1606 1142 1018 994 1565 2048 1890 2043 1538 1532 1619 1516 1503 1852 2057 1387 1340 1632
216 353 1450 2211 2565 2410 1934 2328 2408 2884 2669 2593 3078 2990 2688 2979 2465 2259 2873 2300 1794 1860 1806 1938 1718 1476 1779 1320 1514 1419 1587 2130 2268 1611 1894 1670 1585 1641 1827 1519 1491 1637 1682
102 345 826 2148 2328 1895 1931 2088 2469 2599 2248 2502 2992 2448 2363 2629 2381 1852 1608 1927 2139 1862 1457 1292 969 704 946 1070 1432 1520 1406 1520 1704 2011 1765 1123 1058 1683 1783 1404 1010 1474 1069
28 222 387 1057 1926 1860 2041 2212 2619 2390 2071 2563 2520 2341 2995 2825 2771 1998 2103 1690 1231 920 336 360 425 356 759 1378 1267 1613 1236 804 941 1202 1126 539 28 231 772 1471 1702 1578 1541
1 163 129 694 1937 1415 2116 2474 2649 2632 2661 2339 2553 2927 2552 2452 2370 1971 2145 1377 839 583 1535 1639 1843 1600 1226 961 1149 1213 1151 1125 1263 1053 810 538 551 801 167 336 657 1204 628
20 279 1192 1515 1059 1651 2526 2882 2856 2889 2853 2762 2837 2144 2232 2661 2239 2001 1180 1101 616 685 1854 1206 1070 1199 1145 1035 999 1032 1513 1531 1784 491 529 1205 1104 1747 1241 707 385 173 227
304 586 798 1776 1783 2450 2736 2816 2786 2720 2633 2771 2273 2638 2547 2702 2478 2028 1695 864 1126 878 1607 1189 1870 1566 1521 1150 1128 1518 1753 1674 1637 457 163 297 883 1970 1473 443 196 1152 1302
448 613 817 1676 1887 2272 2330 2257 2251 2085 2387 1508 1776 2188 2114 2359 2619 2384 2201 1707 1647 1682 1541 1705 1768 1570 1356 1116 1204 1881 1979 1716 1476 282 523 259 1393 2205 1265 1540 914 443 671
552 576 893 993 995 1904 2665 2323 2614 2084 2248 2543 2166 2273 2110 1937 1909 2363 2685 2733 2386 2070 1967 1813 1741 1509 1268 1418 1479 1841 1494 1485 1254 259 275 968 2276 2409 1517 1562 1528 1260 754
582 526 595 703 526 1303 1915 2562 2566 2579 2039 2013 1913 2046 1881 2080 2102 1991 2355 2751 2677 2030 2025 1950 1768 1461 2006 2063 1858 1980 1856 1655 1043 478 1 177 1717 1434 806 898 858 1250 1144
811 750 727 772 737 521 1098 1750 2427 1810 1846 2033 1888 1850 2163 1265 1790 2058 2217 2610 2051 2024 1944 1789 1860 2284 2306 1759 2080 2631 2583 1137 151 666 261 1181 2121 2059 1095 1312 1511 1131 1376
1127 1091 1022 887 929 995 1236 1574 1758 1263 1249 1312 1342 1272 1437 1360 1395 1989 2188 2423 1982 1848 1897 2360 2549 2620 1910 1224 434 1630 1728 1236 309 609 336 2134 2660 2730 1943 1689 1283 945 415
1468 1415 1386 1403 1436 1059 1196 1289 1546 1468 1197 1116 979 892 1191 1545 1672 1293 1531 1864 1762 1734 1263 1452 1567 1602 1579 1117 745 600 963 857 556 783 679 2397 2768 2781 2290 2253 1631 1003 746
1394 1431 1540 1651 1709 1559 1277 1104 1450 1614 1316 1048 982 1434 1701 1109 1362 884 1240 1385 1208 918 134 54 1056 1119 1026 623 471 721 492 122 127 715 903 2685 2658 2789 2696 2383 2169 1642 1648
1480 1690 1688 1886 1760 1755 1472 1399 1549 1537 1507 960 983 1116 1293 1201 1025 1635 998 1030 1208 700 194 387 179 32 369 745 534 551 662 409 146 326 820 2538 2692 2795 3021 2697 2301 1840 1603
1745 1743 1759 1986 1639 1648 1660 2264 1706 1714 841 1169 1335 1526 1419 1465 1376 1929 1600 1672 1313 1110 761 0 0 0 36 966 1097 622 617 698 432 156 661 1715 2606 2366 2964 3158 3043 2657 2343
1679 1740 1669 2027 2346 2163 2098 2050 1744 1567 1288 1030 982 1692 1694 1452 1496 1321 1332 1435 1249 1444 572 0 0 0 53 871 1165 863 636 603 637 360 56 810 2011 2715 2863 2653 3062 3108 2915
1195 1870 1990 1822 1571 2422 2115 1529 1753 1450 1824 1551 1095 1981 2011 1863 1736 2157 1707 1070 1117 1422 1634 359 5 17 588 985 954 951 802 580 490 310 246 81 695 2011 2555 2935 2613 2689 2753
1264 1603 1282 1479 1683 1802 2090 2012 2221 1345 1702 1406 1297 1313 2125 2097 1917 1318 1327 1287 1395 1721 1279 1084 1046 889 779 1104 146 1 0 74 608 844 361 226 80 364 1317 2337 2642 2510 2571
1818 2186 1989 2073 1919 1902 2429 1893 1939 2287 2154 1894 1938 2026 1584 1165 2102 2221 1949 1749 1646 1376 901 671 151 90 304 748 1149 485 7 340 718 455 368 292 202 183 481 1321 2030 2072 2565
2132 2311 2452 2139 2741 2644 2627 2004 2163 1939 2081 2225 2132 1352 1255 358 1215 1949 1866 1395 1423 1311 767 751 28 26 2 502 420 276 213 187 345 603 639 508 450 182 268 326 1130 1532 1591
2175 2407 2800 2921 2677 2936 2696 2264 2530 2040 2240 2166 2111 1578 1544 1312 1573 2125 1890 1502 1406 1524 1046 713 151 0 1 406 306 329 204 218 192 386 585 864 781 526 225 214 445 1051 1161
2320 2712 2900 3285 2970 3135 2793 2679 2803 2535 2744 2615 2250 2367 1922 1782 2275 2528 2196 2131 1845 1583 1391 941 327 31 103 277 295 187 195 309 420 312 141 157 645 596 429 217 350 610 1144
2423 2884 3111 3359 3639 3103 2883 3048 2996 2413 2468 2252 2041 2171 2027 2147 2124 2469 2252 2127 1990 1718 1307 963 1015 682 507 845 497 198 155 193 164 143 45 74 146 154 479 453 350 300 316
2508 2910 3396 3358 3874 3265 2973 2856 3069 2944 2680 2409 1331 903 759 543 0 291 265 363 329 993 1392 1174 1001 1086 1034 792 945 454 190 88 52 65 57 9 147 157 366 1105 1215 708 384
2334 2762 3680 3640 3771 3831 3318 3542 3674 3657 3104 2430 1145 539 847 136 0 17 203 297 320 368 396 467 485 479 501 690 677 822 677 483 156 1 1 10 33 98 68 240 518 459 441